Location: Tierra Monte Subdivision
(35.2092°N, 106.4864°W)
Time: 19:53:59
(UTC+00:00)

STARLINK-1116 - Pass Details

Date: 30 March 2020
Orbit: 549 x 550 km, 53.0° (Epoch: 03 June)

Event Time Altitude Azimuth Distance (km) Brightness Sun altitude
Rises 02:43:49 0° 321° (NW) 2,809 8.2 -16.5°
Reaches altitude 10° 02:46:17 10° 331° (NNW) 1,901 7.0 -17.0°
Maximum altitude 02:50:13 33° 36° (NE) 985 4.7 -17.7°
Enters shadow 02:51:14 29° 64° (ENE) 1,068 4.7 -17.9°
